| time (UTC) | temp F | wind direction | speed MPH | gust MPH | rain 1hr in | rain 24hr in | rain mn in | humidity % | barometer mb |
| 20260831124552 | 49 | 124 | 0.0 | 1.0 | 0.00 | 0.00 | 0.00 | 61 | 1015.7 |
| 20260831124048 | 49 | 124 | 0.0 | 0.0 | 0.00 | 0.00 | 0.00 | 66 | 1015.7 |
| 20260831123548 | 49 | 124 | 0.0 | 0.0 | 0.00 | 0.00 | 0.00 | 67 | 1015.7 |
| 20260831123048 | 49 | 124 | 0.0 | 0.0 | 0.00 | 0.00 | 0.00 | 74 | 1015.7 |
| 20260831122553 | 49 | 124 | 0.0 | 0.0 | 0.00 | 0.00 | 0.00 | 72 | 1015.7 |
| 20260831122048 | 49 | 124 | 0.0 | 1.0 | 0.00 | 0.00 | 0.00 | 73 | 1015.8 |
| 20260831121546 | 50 | 124 | 0.0 | 1.0 | 0.00 | 0.00 | 0.00 | 72 | 1015.7 |
| 20260831121046 | 50 | 94 | 0.0 | 1.0 | 0.00 | 0.00 | 0.00 | 68 | 1015.7 |
| 20260831120545 | 50 | 93 | 0.0 | 1.0 | 0.00 | 0.00 | 0.00 | 67 | 1015.7 |
| 20260831120046 | 50 | 75 | 0.0 | 1.0 | 0.00 | 0.00 | 0.00 | 69 | 1015.7 |
| 20260831115544 | 49 | 77 | 0.0 | 1.0 | 0.00 | 0.00 | 0.00 | 70 | 1015.7 |
| 20260831115047 | 49 | 77 | 0.0 | 0.0 | 0.00 | 0.00 | 0.00 | 72 | 1015.8 |
| 20260831114544 | 50 | 77 | 0.0 | 1.0 | 0.00 | 0.00 | 0.00 | 72 | 1015.8 |
| 20260831114043 | 50 | 77 | 0.0 | 1.0 | 0.00 | 0.00 | 0.00 | 71 | 1015.8 |
| 20260831113543 | 50 | 77 | 0.0 | 1.0 | 0.00 | 0.00 | 0.00 | 71 | 1015.7 |
| 20260831113045 | 50 | 75 | 0.0 | 1.0 | 0.00 | 0.00 | 0.00 | 72 | 1015.8 |
| 20260831112542 | 50 | 58 | 0.0 | 0.0 | 0.00 | 0.00 | 0.00 | 73 | 1015.7 |
| 20260831112040 | 50 | 58 | 0.0 | 0.0 | 0.00 | 0.00 | 0.00 | 71 | 1015.8 |
| 20260831111541 | 50 | 58 | 0.0 | 0.0 | 0.00 | 0.00 | 0.00 | 70 | 1015.8 |
| 20260831111039 | 50 | 58 | 0.0 | 0.0 | 0.00 | 0.00 | 0.00 | 68 | 1015.8 |
| 20260831110540 | 50 | 58 | 0.0 | 0.0 | 0.00 | 0.00 | 0.00 | 68 | 1015.8 |
| 20260831110043 | 50 | 58 | 0.0 | 0.0 | 0.00 | 0.00 | 0.00 | 68 | 1015.8 |
| 20260831105541 | 50 | 58 | 0.0 | 0.0 | 0.00 | 0.00 | 0.00 | 67 | 1015.8 |
| 20260831105039 | 51 | 58 | 0.0 | 0.0 | 0.00 | 0.00 | 0.00 | 67 | 1015.8 |
| 20260831104539 | 51 | 58 | 0.0 | 0.0 | 0.00 | 0.00 | 0.00 | 64 | 1015.8 |
| 20260831104035 | 51 | 60 | 0.0 | 0.0 | 0.00 | 0.00 | 0.00 | 62 | 1015.8 |
| 20260831103535 | 50 | 58 | 0.0 | 0.0 | 0.00 | 0.00 | 0.00 | 65 | 1015.8 |
| 20260831103035 | 50 | 58 | 0.0 | 0.0 | 0.00 | 0.00 | 0.00 | 68 | 1015.8 |
| 20260831102534 | 51 | 60 | 0.0 | 1.0 | 0.00 | 0.00 | 0.00 | 67 | 1015.8 |
| 20260831102034 | 51 | 58 | 0.0 | 1.0 | 0.00 | 0.00 | 0.00 | 63 | 1015.8 |
| 20260831101541 | 52 | 58 | 0.0 | 1.0 | 0.00 | 0.00 | 0.00 | 59 | 1015.8 |
| 20260831101034 | 52 | 58 | 0.0 | 1.0 | 0.00 | 0.00 | 0.00 | 53 | 1015.7 |
| 20260831100535 | 52 | 58 | 0.0 | 1.0 | 0.00 | 0.00 | 0.00 | 55 | 1015.7 |
| 20260831100032 | 53 | 58 | 0.0 | 0.0 | 0.00 | 0.00 | 0.00 | 51 | 1015.7 |
| 20260831095531 | 53 | 58 | 0.0 | 0.0 | 0.00 | 0.00 | 0.00 | 50 | 1015.7 |
| 20260831095033 | 53 | 58 | 0.0 | 0.0 | 0.00 | 0.00 | 0.00 | 45 | 1015.7 |
| 20260831094531 | 53 | 58 | 0.0 | 1.0 | 0.00 | 0.00 | 0.00 | 44 | 1015.7 |
| 20260831094030 | 53 | 58 | 0.0 | 1.0 | 0.00 | 0.00 | 0.00 | 44 | 1015.7 |
| 20260831093530 | 53 | 70 | 0.0 | 1.0 | 0.00 | 0.00 | 0.00 | 44 | 1015.7 |
| 20260831093032 | 53 | 70 | 0.0 | 1.0 | 0.00 | 0.00 | 0.00 | 44 | 1015.7 |
| 20260831092528 | 53 | 70 | 0.0 | 1.0 | 0.00 | 0.00 | 0.00 | 45 | 1015.7 |
| 20260831092028 | 52 | 70 | 0.0 | 1.0 | 0.00 | 0.00 | 0.00 | 48 | 1015.7 |
| 20260831091544 | 52 | 70 | 0.0 | 2.0 | 0.00 | 0.00 | 0.00 | 51 | 1015.7 |
| 20260831091030 | 51 | 71 | 0.0 | 2.0 | 0.00 | 0.00 | 0.00 | 57 | 1015.7 |
| 20260831090528 | 51 | 130 | 0.0 | 1.0 | 0.00 | 0.00 | 0.00 | 59 | 1015.7 |
| 20260831090029 | 51 | 129 | 0.0 | 0.0 | 0.00 | 0.00 | 0.00 | 62 | 1015.7 |
| 20260831085526 | 51 | 129 | 0.0 | 1.0 | 0.00 | 0.00 | 0.00 | 64 | 1015.7 |
| 20260831085025 | 51 | 129 | 0.0 | 1.0 | 0.00 | 0.00 | 0.00 | 66 | 1015.7 |
| 20260831084526 | 50 | 122 | 0.0 | 1.0 | 0.00 | 0.00 | 0.00 | 68 | 1015.6 |
| 20260831084024 | 51 | 120 | 0.0 | 1.0 | 0.00 | 0.00 | 0.00 | 68 | 1015.7 |
| 20260831083523 | 51 | 139 | 0.0 | 1.0 | 0.00 | 0.00 | 0.00 | 70 | 1015.6 |
| 20260831083022 | 51 | 139 | 0.0 | 1.0 | 0.00 | 0.00 | 0.00 | 69 | 1015.5 |
| 20260831082522 | 51 | 139 | 0.0 | 0.0 | 0.00 | 0.00 | 0.00 | 68 | 1015.5 |
| 20260831082022 | 51 | 139 | 0.0 | 1.0 | 0.00 | 0.00 | 0.00 | 68 | 1015.6 |
| 20260831081533 | 51 | 139 | 0.0 | 1.0 | 0.00 | 0.00 | 0.00 | 70 | 1015.5 |
| 20260831081020 | 52 | 138 | 0.0 | 1.0 | 0.00 | 0.00 | 0.00 | 70 | 1015.5 |
| 20260831080519 | 52 | 138 | 0.0 | 1.0 | 0.00 | 0.00 | 0.00 | 68 | 1015.5 |
| 20260831080045 | 52 | 138 | 0.0 | 1.0 | 0.00 | 0.00 | 0.00 | 64 | 1015.5 |
| 20260831075517 | 52 | 138 | 0.0 | 2.0 | 0.00 | 0.00 | 0.00 | 64 | 1015.5 |
| 20260831075016 | 53 | 138 | 0.0 | 2.0 | 0.00 | 0.00 | 0.00 | 62 | 1015.5 |
| 20260831074516 | 53 | 301 | 0.0 | 1.0 | 0.00 | 0.00 | 0.00 | 62 | 1015.5 |
| 20260831074018 | 53 | 300 | 0.0 | 1.0 | 0.00 | 0.00 | 0.00 | 60 | 1015.5 |
| 20260831073515 | 53 | 300 | 0.0 | 3.0 | 0.00 | 0.00 | 0.00 | 61 | 1015.4 |
| 20260831073034 | 52 | 300 | 1.0 | 3.0 | 0.00 | 0.00 | 0.00 | 58 | 1015.5 |
| 20260831072512 | 52 | 146 | 0.0 | 2.0 | 0.00 | 0.00 | 0.00 | 58 | 1015.5 |
| 20260831072011 | 52 | 146 | 1.0 | 2.0 | 0.00 | 0.00 | 0.00 | 63 | 1015.4 |
| 20260831071510 | 53 | 138 | 0.0 | 2.0 | 0.00 | 0.00 | 0.00 | 61 | 1015.4 |
| 20260831071008 | 54 | 138 | 0.0 | 2.0 | 0.00 | 0.00 | 0.00 | 60 | 1015.5 |
| 20260831070511 | 54 | 137 | 0.0 | 1.0 | 0.00 | 0.00 | 0.00 | 59 | 1015.6 |
| 20260831070007 | 55 | 125 | 0.0 | 0.0 | 0.00 | 0.00 | 0.00 | 56 | 1015.6 |
| 20260831065506 | 55 | 125 | 0.0 | 1.0 | 0.00 | 0.00 | 0.00 | 55 | 1015.7 |
| 20260831065005 | 55 | 125 | 0.0 | 1.0 | 0.00 | 0.00 | 0.00 | 50 | 1015.6 |
| 20260831064505 | 55 | 125 | 0.0 | 1.0 | 0.00 | 0.00 | 0.00 | 47 | 1015.7 |
| 20260831064003 | 55 | 125 | 0.0 | 1.0 | 0.00 | 0.00 | 0.00 | 44 | 1015.7 |
| 20260831063502 | 54 | 125 | 0.0 | 1.0 | 0.00 | 0.00 | 0.00 | 48 | 1015.6 |
| 20260831063001 | 54 | 125 | 0.0 | 0.0 | 0.00 | 0.00 | 0.00 | 54 | 1015.6 |
| 20260831062601 | 54 | 125 | 0.0 | 1.0 | 0.00 | 0.00 | 0.00 | 52 | 1015.6 |
| 20260831062100 | 55 | 125 | 0.0 | 1.0 | 0.00 | 0.00 | 0.00 | 53 | 1015.6 |
| 20260831061558 | 55 | 127 | 0.0 | 1.0 | 0.00 | 0.00 | 0.00 | 54 | 1015.6 |
| 20260831061056 | 55 | 127 | 0.0 | 1.0 | 0.00 | 0.00 | 0.00 | 55 | 1015.6 |
| 20260831060554 | 54 | 127 | 0.0 | 1.0 | 0.00 | 0.00 | 0.00 | 57 | 1015.6 |
| 20260831060055 | 54 | 127 | 0.0 | 1.0 | 0.00 | 0.00 | 0.00 | 59 | 1015.6 |
| 20260831055553 | 54 | 127 | 0.0 | 1.0 | 0.00 | 0.00 | 0.00 | 56 | 1015.6 |
| 20260831055053 | 55 | 127 | 0.0 | 1.0 | 0.00 | 0.00 | 0.00 | 55 | 1015.7 |
| 20260831054553 | 55 | 127 | 0.0 | 1.0 | 0.00 | 0.00 | 0.00 | 56 | 1015.7 |
| 20260831054054 | 55 | 127 | 0.0 | 1.0 | 0.00 | 0.00 | 0.00 | 56 | 1015.7 |
| 20260831053552 | 56 | 127 | 0.0 | 1.0 | 0.00 | 0.00 | 0.00 | 55 | 1015.7 |
| 20260831053052 | 56 | 127 | 0.0 | 1.0 | 0.00 | 0.00 | 0.00 | 55 | 1015.8 |
| 20260831052552 | 56 | 127 | 0.0 | 1.0 | 0.00 | 0.00 | 0.00 | 54 | 1015.8 |
| 20260831052054 | 56 | 127 | 0.0 | 1.0 | 0.00 | 0.00 | 0.00 | 56 | 1015.8 |
| 20260831051551 | 56 | 127 | 0.0 | 2.0 | 0.00 | 0.00 | 0.00 | 56 | 1015.8 |
| 20260831051050 | 56 | 127 | 1.0 | 2.0 | 0.00 | 0.00 | 0.00 | 53 | 1015.8 |
| 20260831050552 | 57 | 148 | 0.0 | 1.0 | 0.00 | 0.00 | 0.00 | 53 | 1015.7 |
| 20260831050050 | 57 | 148 | 0.0 | 1.0 | 0.00 | 0.00 | 0.00 | 52 | 1015.7 |
| 20260831045553 | 57 | 148 | 0.0 | 1.0 | 0.00 | 0.00 | 0.00 | 50 | 1015.7 |
| 20260831045050 | 57 | 148 | 0.0 | 1.0 | 0.00 | 0.00 | 0.00 | 52 | 1015.7 |
| 20260831044557 | 57 | 148 | 0.0 | 1.0 | 0.00 | 0.00 | 0.00 | 53 | 1015.7 |
| 20260831044049 | 58 | 148 | 0.0 | 1.0 | 0.00 | 0.00 | 0.00 | 53 | 1015.6 |
| 20260831043553 | 58 | 148 | 0.0 | 1.0 | 0.00 | 0.00 | 0.00 | 55 | 1015.6 |
| 20260831043050 | 59 | 148 | 0.0 | 1.0 | 0.00 | 0.00 | 0.00 | 52 | 1015.6 |
| 20260831042550 | 59 | 148 | 0.0 | 0.0 | 0.00 | 0.00 | 0.00 | 48 | 1015.6 |
| 20260831042049 | 59 | 148 | 0.0 | 1.0 | 0.00 | 0.00 | 0.00 | 47 | 1015.6 |
| 20260831041559 | 59 | 149 | 0.0 | 1.0 | 0.00 | 0.00 | 0.00 | 46 | 1015.7 |
| 20260831041050 | 59 | 148 | 0.0 | 1.0 | 0.00 | 0.00 | 0.00 | 48 | 1015.8 |
| 20260831040548 | 59 | 149 | 0.0 | 1.0 | 0.00 | 0.00 | 0.00 | 48 | 1015.6 |
| 20260831040048 | 59 | 148 | 0.0 | 1.0 | 0.00 | 0.00 | 0.00 | 47 | 1015.5 |
| 20260831035548 | 60 | 149 | 0.0 | 1.0 | 0.00 | 0.00 | 0.00 | 50 | 1015.4 |
| 20260831035047 | 60 | 150 | 0.0 | 1.0 | 0.00 | 0.00 | 0.00 | 47 | 1015.3 |
| 20260831034551 | 61 | 149 | 0.0 | 1.0 | 0.00 | 0.00 | 0.00 | 44 | 1015.3 |
| 20260831034047 | 62 | 150 | 0.0 | 1.0 | 0.00 | 0.00 | 0.00 | 42 | 1015.3 |
| 20260831033550 | 62 | 151 | 0.0 | 1.0 | 0.00 | 0.00 | 0.00 | 39 | 1015.3 |
| 20260831033049 | 63 | 150 | 0.0 | 1.0 | 0.00 | 0.00 | 0.00 | 41 | 1015.2 |
| 20260831032546 | 63 | 150 | 0.0 | 2.0 | 0.00 | 0.00 | 0.00 | 38 | 1015.2 |
| 20260831032049 | 63 | 150 | 0.0 | 2.0 | 0.00 | 0.00 | 0.00 | 37 | 1015.0 |
| 20260831031546 | 64 | 151 | 0.0 | 2.0 | 0.00 | 0.00 | 0.00 | 34 | 1015.0 |
| 20260831031045 | 64 | 151 | 0.0 | 3.0 | 0.00 | 0.00 | 0.00 | 35 | 1015.0 |
| 20260831030545 | 65 | 147 | 0.0 | 3.0 | 0.00 | 0.00 | 0.00 | 31 | 1014.9 |
| 20260831030045 | 66 | 153 | 0.0 | 3.0 | 0.00 | 0.00 | 0.00 | 30 | 1014.9 |
| 20260831025545 | 67 | 163 | 1.0 | 2.0 | 0.00 | 0.00 | 0.00 | 31 | 1014.9 |
| 20260831025045 | 68 | 143 | 0.0 | 2.0 | 0.00 | 0.00 | 0.00 | 29 | 1014.8 |
| 20260831024546 | 69 | 150 | 1.0 | 2.0 | 0.00 | 0.00 | 0.00 | 27 | 1014.8 |
| 20260831024044 | 70 | 257 | 0.0 | 2.0 | 0.00 | 0.00 | 0.00 | 27 | 1014.7 |
| 20260831023544 | 71 | 259 | 0.0 | 2.0 | 0.00 | 0.00 | 0.00 | 24 | 1014.6 |
| 20260831023044 | 72 | 204 | 0.0 | 2.0 | 0.00 | 0.00 | 0.00 | 24 | 1014.6 |
| 20260831022548 | 73 | 304 | 0.0 | 3.0 | 0.00 | 0.00 | 0.00 | 18 | 1014.6 |
| 20260831022048 | 73 | 312 | 1.0 | 4.0 | 0.00 | 0.00 | 0.00 | 17 | 1014.6 |
| 20260831021548 | 73 | 301 | 0.0 | 6.0 | 0.00 | 0.00 | 0.00 | 17 | 1014.6 |
| 20260831021042 | 74 | 300 | 2.0 | 6.0 | 0.00 | 0.00 | 0.00 | 16 | 1014.6 |
| 20260831020542 | 74 | 333 | 2.0 | 4.0 | 0.00 | 0.00 | 0.00 | 16 | 1014.5 |
| 20260831020042 | 74 | 293 | 2.0 | 6.0 | 0.00 | 0.00 | 0.00 | 16 | 1014.6 |
| 20260831015541 | 74 | 304 | 3.0 | 8.0 | 0.00 | 0.00 | 0.00 | 15 | 1014.6 |
| 20260831015041 | 74 | 304 | 2.0 | 8.0 | 0.00 | 0.00 | 0.00 | 15 | 1014.7 |
| 20260831014541 | 74 | 304 | 2.0 | 6.0 | 0.00 | 0.00 | 0.00 | 15 | 1014.7 |
| 20260831014041 | 75 | 323 | 2.0 | 7.0 | 0.00 | 0.00 | 0.00 | 14 | 1014.7 |
| 20260831013540 | 75 | 312 | 2.0 | 7.0 | 0.00 | 0.00 | 0.00 | 15 | 1014.8 |
| 20260831013045 | 75 | 306 | 2.0 | 6.0 | 0.00 | 0.00 | 0.00 | 16 | 1014.8 |
| 20260831012540 | 75 | 307 | 2.0 | 5.0 | 0.00 | 0.00 | 0.00 | 17 | 1014.9 |
| 20260831012040 | 75 | 329 | 0.0 | 5.0 | 0.00 | 0.00 | 0.00 | 20 | 1014.9 |
| 20260831011545 | 75 | 324 | 1.0 | 3.0 | 0.00 | 0.00 | 0.00 | 20 | 1015.0 |
| 20260831011038 | 75 | 309 | 0.0 | 4.0 | 0.00 | 0.00 | 0.00 | 21 | 1015.1 |
| 20260831010539 | 75 | 304 | 2.0 | 7.0 | 0.00 | 0.00 | 0.00 | 20 | 1015.2 |
| 20260831010053 | 75 | 311 | 2.0 | 7.0 | 0.00 | 0.00 | 0.00 | 21 | 1015.3 |
| 20260831005538 | 75 | 322 | 2.0 | 7.0 | 0.00 | 0.00 | 0.00 | 22 | 1015.3 |
| 20260831005038 | 75 | 323 | 2.0 | 7.0 | 0.00 | 0.00 | 0.00 | 22 | 1015.3 |
| 20260831004538 | 75 | 333 | 2.0 | 7.0 | 0.00 | 0.00 | 0.00 | 22 | 1015.3 |
| 20260831004039 | 76 | 317 | 2.0 | 6.0 | 0.00 | 0.00 | 0.00 | 21 | 1015.3 |
| 20260831003538 | 75 | 320 | 2.0 | 7.0 | 0.00 | 0.00 | 0.00 | 20 | 1015.4 |
| 20260831003038 | 75 | 315 | 3.0 | 7.0 | 0.00 | 0.00 | 0.00 | 19 | 1015.4 |
| 20260831002537 | 75 | 305 | 2.0 | 7.0 | 0.00 | 0.00 | 0.00 | 19 | 1015.5 |
| 20260831002037 | 75 | 306 | 2.0 | 6.0 | 0.00 | 0.00 | 0.00 | 19 | 1015.6 |
| 20260831001540 | 75 | 323 | 2.0 | 5.0 | 0.00 | 0.00 | 0.00 | 18 | 1015.6 |
| 20260831001036 | 75 | 326 | 1.0 | 4.0 | 0.00 | 0.00 | 0.00 | 18 | 1015.6 |
| 20260831000536 | 75 | 326 | 1.0 | 4.0 | 0.00 | 0.00 | 0.00 | 18 | 1015.7 |
| 20260831000038 | 75 | 326 | 1.0 | 6.0 | 0.00 | 0.00 | 0.00 | 19 | 1015.7 |
| 20260830235539 | 75 | 290 | 1.0 | 6.0 | 0.00 | 0.00 | 0.00 | 19 | 1015.7 |
| 20260830235035 | 75 | 338 | 1.0 | 5.0 | 0.00 | 0.00 | 0.00 | 18 | 1015.8 |
| 20260830234535 | 75 | 324 | 1.0 | 5.0 | 0.00 | 0.00 | 0.00 | 17 | 1015.8 |
| 20260830234039 | 75 | 135 | 1.0 | 5.0 | 0.00 | 0.00 | 0.00 | 19 | 1015.9 |
| 20260830233535 | 75 | 288 | 1.0 | 6.0 | 0.00 | 0.00 | 0.00 | 18 | 1015.9 |
| 20260830233035 | 75 | 332 | 1.0 | 7.0 | 0.00 | 0.00 | 0.00 | 17 | 1016.0 |
| 20260830232534 | 75 | 340 | 2.0 | 7.0 | 0.00 | 0.00 | 0.00 | 17 | 1016.0 |
| 20260830232033 | 75 | 326 | 2.0 | 8.0 | 0.00 | 0.00 | 0.00 | 17 | 1016.1 |
| 20260830231532 | 76 | 307 | 2.0 | 8.0 | 0.00 | 0.00 | 0.00 | 18 | 1016.1 |
| 20260830231032 | 76 | 16 | 2.0 | 5.0 | 0.00 | 0.00 | 0.00 | 18 | 1016.1 |
| 20260830230533 | 76 | 4 | 1.0 | 6.0 | 0.00 | 0.00 | 0.00 | 18 | 1016.2 |
| 20260830230033 | 76 | 323 | 4.0 | 8.0 | 0.00 | 0.00 | 0.00 | 17 | 1016.3 |
| 20260830225531 | 76 | 336 | 2.0 | 8.0 | 0.00 | 0.00 | 0.00 | 19 | 1016.3 |
| 20260830225032 | 75 | 323 | 2.0 | 8.0 | 0.00 | 0.00 | 0.00 | 19 | 1016.4 |
| 20260830224533 | 76 | 318 | 4.0 | 8.0 | 0.00 | 0.00 | 0.00 | 19 | 1016.5 |
| 20260830224032 | 76 | 324 | 3.0 | 8.0 | 0.00 | 0.00 | 0.00 | 19 | 1016.5 |
| 20260830223530 | 76 | 318 | 2.0 | 7.0 | 0.00 | 0.00 | 0.00 | 18 | 1016.5 |
| 20260830223028 | 76 | 320 | 1.0 | 5.0 | 0.00 | 0.00 | 0.00 | 19 | 1016.6 |
| 20260830222528 | 75 | 319 | 2.0 | 6.0 | 0.00 | 0.00 | 0.00 | 19 | 1016.7 |
| 20260830222027 | 75 | 302 | 2.0 | 7.0 | 0.00 | 0.00 | 0.00 | 18 | 1016.7 |
| 20260830221526 | 75 | 283 | 2.0 | 7.0 | 0.00 | 0.00 | 0.00 | 20 | 1016.8 |
| 20260830221025 | 75 | 325 | 1.0 | 8.0 | 0.00 | 0.00 | 0.00 | 20 | 1016.9 |
| 20260830220525 | 75 | 311 | 4.0 | 8.0 | 0.00 | 0.00 | 0.00 | 20 | 1017.0 |
| 20260830220032 | 74 | 307 | 3.0 | 6.0 | 0.00 | 0.00 | 0.00 | 19 | 1017.0 |
| 20260830215527 | 74 | 285 | 2.0 | 6.0 | 0.00 | 0.00 | 0.00 | 19 | 1017.1 |
| 20260830215022 | 74 | 270 | 2.0 | 7.0 | 0.00 | 0.00 | 0.00 | 21 | 1017.2 |
| 20260830214523 | 74 | 315 | 3.0 | 7.0 | 0.00 | 0.00 | 0.00 | 19 | 1017.3 |
| 20260830214024 | 73 | 160 | 1.0 | 6.0 | 0.00 | 0.00 | 0.00 | 20 | 1017.3 |
| 20260830213527 | 74 | 318 | 1.0 | 8.0 | 0.00 | 0.00 | 0.00 | 21 | 1017.4 |
| 20260830213021 | 74 | 309 | 3.0 | 8.0 | 0.00 | 0.00 | 0.00 | 21 | 1017.4 |
| 20260830212520 | 74 | 324 | 2.0 | 6.0 | 0.00 | 0.00 | 0.00 | 21 | 1017.4 |
| 20260830212020 | 74 | 309 | 3.0 | 8.0 | 0.00 | 0.00 | 0.00 | 21 | 1017.5 |
| 20260830211519 | 73 | 322 | 2.0 | 8.0 | 0.00 | 0.00 | 0.00 | 22 | 1017.5 |
| 20260830211017 | 73 | 313 | 3.0 | 7.0 | 0.00 | 0.00 | 0.00 | 21 | 1017.5 |
| 20260830210516 | 73 | 298 | 3.0 | 7.0 | 0.00 | 0.00 | 0.00 | 23 | 1017.6 |
| 20260830210018 | 72 | 276 | 2.0 | 7.0 | 0.00 | 0.00 | 0.00 | 23 | 1017.7 |
| 20260830205516 | 72 | 307 | 3.0 | 7.0 | 0.00 | 0.00 | 0.00 | 23 | 1017.8 |
| 20260830205015 | 72 | 18 | 3.0 | 7.0 | 0.00 | 0.00 | 0.00 | 23 | 1017.9 |
| 20260830204527 | 72 | 325 | 3.0 | 7.0 | 0.00 | 0.00 | 0.00 | 22 | 1017.9 |
| 20260830204014 | 72 | 145 | 2.0 | 6.0 | 0.00 | 0.00 | 0.00 | 25 | 1017.9 |
| 20260830203515 | 72 | 304 | 1.0 | 6.0 | 0.00 | 0.00 | 0.00 | 24 | 1017.9 |
| 20260830203014 | 72 | 341 | 2.0 | 6.0 | 0.00 | 0.00 | 0.00 | 25 | 1018.0 |
| 20260830202513 | 71 | 113 | 0.0 | 6.0 | 0.00 | 0.00 | 0.00 | 25 | 1018.1 |
| 20260830202012 | 70 | 308 | 1.0 | 6.0 | 0.00 | 0.00 | 0.00 | 25 | 1018.2 |
| 20260830201515 | 69 | 333 | 1.0 | 9.0 | 0.00 | 0.00 | 0.00 | 25 | 1018.2 |
| 20260830201010 | 70 | 330 | 4.0 | 9.0 | 0.00 | 0.00 | 0.00 | 24 | 1018.2 |
| 20260830200513 | 69 | 274 | 3.0 | 7.0 | 0.00 | 0.00 | 0.00 | 25 | 1018.3 |
| 20260830200009 | 69 | 314 | 2.0 | 7.0 | 0.00 | 0.00 | 0.00 | 27 | 1018.3 |
| 20260830195508 | 69 | 333 | 1.0 | 7.0 | 0.00 | 0.00 | 0.00 | 30 | 1018.4 |
| 20260830195006 | 69 | 156 | 1.0 | 9.0 | 0.00 | 0.00 | 0.00 | 30 | 1018.4 |
| 20260830194506 | 69 | 330 | 5.0 | 9.0 | 0.00 | 0.00 | 0.00 | 28 | 1018.6 |
| 20260830194008 | 69 | 312 | 3.0 | 9.0 | 0.00 | 0.00 | 0.00 | 27 | 1018.6 |
| 20260830193505 | 69 | 298 | 2.0 | 5.0 | 0.00 | 0.00 | 0.00 | 29 | 1018.5 |
| 20260830193005 | 68 | 327 | 1.0 | 6.0 | 0.00 | 0.00 | 0.00 | 28 | 1018.7 |
| 20260830192501 | 67 | 311 | 2.0 | 7.0 | 0.00 | 0.00 | 0.00 | 30 | 1018.8 |
| 20260830192001 | 67 | 324 | 2.0 | 7.0 | 0.00 | 0.00 | 0.00 | 30 | 1018.8 |
| 20260830191501 | 67 | 324 | 2.0 | 6.0 | 0.00 | 0.00 | 0.00 | 33 | 1018.8 |
| 20260830191100 | 66 | 318 | 2.0 | 6.0 | 0.00 | 0.00 | 0.00 | 33 | 1018.9 |
| 20260830190600 | 66 | 315 | 2.0 | 7.0 | 0.00 | 0.00 | 0.00 | 33 | 1018.9 |
| 20260830190100 | 66 | 294 | 3.0 | 7.0 | 0.00 | 0.00 | 0.00 | 33 | 1019.1 |
| 20260830185600 | 66 | 330 | 1.0 | 6.0 | 0.00 | 0.00 | 0.00 | 34 | 1019.2 |
| 20260830185100 | 66 | 336 | 2.0 | 6.0 | 0.00 | 0.00 | 0.00 | 33 | 1019.2 |
| 20260830184600 | 66 | 322 | 2.0 | 7.0 | 0.00 | 0.00 | 0.00 | 33 | 1019.3 |
| 20260830184059 | 66 | 322 | 1.0 | 8.0 | 0.00 | 0.00 | 0.00 | 34 | 1019.3 |
| 20260830183559 | 65 | 308 | 1.0 | 8.0 | 0.00 | 0.00 | 0.00 | 37 | 1019.3 |
| 20260830183058 | 65 | 325 | 1.0 | 6.0 | 0.00 | 0.00 | 0.00 | 37 | 1019.4 |
| 20260830182558 | 65 | 131 | 1.0 | 5.0 | 0.00 | 0.00 | 0.00 | 36 | 1019.5 |
| 20260830182058 | 64 | 326 | 2.0 | 5.0 | 0.00 | 0.00 | 0.00 | 38 | 1019.5 |
| 20260830181602 | 64 | 143 | 1.0 | 6.0 | 0.00 | 0.00 | 0.00 | 40 | 1019.5 |
| 20260830181057 | 63 | 317 | 2.0 | 6.0 | 0.00 | 0.00 | 0.00 | 41 | 1019.5 |
| 20260830180558 | 63 | 335 | 1.0 | 5.0 | 0.00 | 0.00 | 0.00 | 41 | 1019.6 |
| 20260830180058 | 62 | 325 | 2.0 | 6.0 | 0.00 | 0.00 | 0.00 | 42 | 1019.6 |
| 20260830175557 | 62 | 331 | 1.0 | 5.0 | 0.00 | 0.00 | 0.00 | 43 | 1019.7 |
| 20260830175057 | 62 | 323 | 1.0 | 6.0 | 0.00 | 0.00 | 0.00 | 43 | 1019.6 |
| 20260830174632 | 62 | 309 | 3.0 | 6.0 | 0.00 | 0.00 | 0.00 | 43 | 1019.6 |
| 20260830174057 | 62 | 321 | 0.0 | 4.0 | 0.00 | 0.00 | 0.00 | 44 | 1019.6 |
| 20260830173556 | 61 | 321 | 1.0 | 5.0 | 0.00 | 0.00 | 0.00 | 44 | 1019.7 |
| 20260830173056 | 61 | 325 | 2.0 | 5.0 | 0.00 | 0.00 | 0.00 | 45 | 1019.7 |
| 20260830172556 | 61 | 321 | 1.0 | 5.0 | 0.00 | 0.00 | 0.00 | 45 | 1019.7 |
| 20260830172056 | 61 | 136 | 1.0 | 4.0 | 0.00 | 0.00 | 0.00 | 47 | 1019.7 |
| 20260830171608 | 60 | 156 | 0.0 | 4.0 | 0.00 | 0.00 | 0.00 | 48 | 1019.7 |
| 20260830171055 | 60 | 224 | 0.0 | 5.0 | 0.00 | 0.00 | 0.00 | 48 | 1019.7 |
| 20260830170554 | 60 | 301 | 0.0 | 5.0 | 0.00 | 0.00 | 0.00 | 47 | 1019.7 |
| 20260830170054 | 59 | 312 | 0.0 | 4.0 | 0.00 | 0.00 | 0.00 | 49 | 1019.7 |
| 20260830165554 | 59 | 135 | 0.0 | 4.0 | 0.00 | 0.00 | 0.00 | 49 | 1019.7 |
| 20260830165053 | 59 | 328 | 0.0 | 3.0 | 0.00 | 0.00 | 0.00 | 49 | 1019.7 |
| 20260830164554 | 59 | 309 | 1.0 | 3.0 | 0.00 | 0.00 | 0.00 | 50 | 1019.7 |
| 20260830164053 | 59 | 312 | 1.0 | 3.0 | 0.00 | 0.00 | 0.00 | 50 | 1019.6 |
| 20260830163553 | 58 | 130 | 0.0 | 3.0 | 0.00 | 0.00 | 0.00 | 51 | 1019.7 |
| 20260830163058 | 58 | 324 | 1.0 | 4.0 | 0.00 | 0.00 | 0.00 | 50 | 1019.7 |
| 20260830162554 | 58 | 120 | 2.0 | 4.0 | 0.00 | 0.00 | 0.00 | 50 | 1019.7 |
| 20260830162052 | 58 | 41 | 0.0 | 3.0 | 0.00 | 0.00 | 0.00 | 52 | 1019.7 |
| 20260830161606 | 57 | 305 | 0.0 | 3.0 | 0.00 | 0.00 | 0.00 | 52 | 1019.7 |
| 20260830161051 | 57 | 330 | 1.0 | 3.0 | 0.00 | 0.00 | 0.00 | 52 | 1019.6 |
| 20260830160558 | 57 | 314 | 1.0 | 4.0 | 0.00 | 0.00 | 0.00 | 53 | 1019.6 |
| 20260830160051 | 57 | 133 | 1.0 | 4.0 | 0.00 | 0.00 | 0.00 | 54 | 1019.6 |
| 20260830155551 | 56 | 322 | 1.0 | 6.0 | 0.00 | 0.00 | 0.00 | 53 | 1019.6 |
| 20260830155051 | 56 | 328 | 1.0 | 6.0 | 0.00 | 0.00 | 0.00 | 54 | 1019.5 |
| 20260830154551 | 56 | 6 | 0.0 | 5.0 | 0.00 | 0.00 | 0.00 | 55 | 1019.5 |
| 20260830154053 | 56 | 318 | 2.0 | 4.0 | 0.00 | 0.00 | 0.00 | 54 | 1019.5 |
| 20260830153550 | 55 | 317 | 1.0 | 4.0 | 0.00 | 0.00 | 0.00 | 55 | 1019.5 |
| 20260830153050 | 55 | 314 | 0.0 | 4.0 | 0.00 | 0.00 | 0.00 | 55 | 1019.6 |
| 20260830152550 | 55 | 314 | 1.0 | 3.0 | 0.00 | 0.00 | 0.00 | 56 | 1019.6 |
| 20260830152049 | 54 | 320 | 0.0 | 4.0 | 0.00 | 0.00 | 0.00 | 57 | 1019.6 |
| 20260830151555 | 54 | 321 | 2.0 | 4.0 | 0.00 | 0.00 | 0.00 | 57 | 1019.5 |
| 20260830151051 | 54 | 312 | 1.0 | 3.0 | 0.00 | 0.00 | 0.00 | 57 | 1019.5 |
| 20260830150548 | 54 | 312 | 1.0 | 3.0 | 0.00 | 0.00 | 0.00 | 57 | 1019.6 |
| 20260830150049 | 53 | 319 | 0.0 | 3.0 | 0.00 | 0.00 | 0.00 | 58 | 1019.6 |
| 20260830145550 | 53 | 319 | 1.0 | 3.0 | 0.00 | 0.00 | 0.00 | 59 | 1019.5 |
| 20260830145047 | 52 | 137 | 0.0 | 4.0 | 0.00 | 0.00 | 0.00 | 62 | 1019.5 |
| 20260830144547 | 52 | 143 | 1.0 | 3.0 | 0.00 | 0.00 | 0.00 | 64 | 1019.4 |
| 20260830144047 | 52 | 134 | 1.0 | 3.0 | 0.00 | 0.00 | 0.00 | 65 | 1019.5 |
| 20260830143546 | 51 | 133 | 1.0 | 2.0 | 0.00 | 0.00 | 0.00 | 67 | 1019.4 |
| 20260830143046 | 51 | 75 | 0.0 | 1.0 | 0.00 | 0.00 | 0.00 | 69 | 1019.4 |
| 20260830142546 | 50 | 335 | 0.0 | 2.0 | 0.00 | 0.00 | 0.00 | 72 | 1019.3 |
| 20260830142044 | 50 | 336 | 0.0 | 2.0 | 0.00 | 0.00 | 0.00 | 75 | 1019.2 |
| 20260830141544 | 50 | 335 | 0.0 | 1.0 | 0.00 | 0.00 | 0.00 | 74 | 1019.1 |
| 20260830141043 | 49 | 335 | 0.0 | 1.0 | 0.00 | 0.00 | 0.00 | 72 | 1019.1 |
| 20260830140542 | 49 | 336 | 0.0 | 1.0 | 0.00 | 0.00 | 0.00 | 73 | 1019.0 |
| 20260830140100 | 48 | 335 | 0.0 | 0.0 | 0.00 | 0.00 | 0.00 | 74 | 1018.9 |
| 20260830135542 | 48 | 335 | 0.0 | 0.0 | 0.00 | 0.00 | 0.00 | 76 | 1018.9 |
| 20260830135041 | 47 | 335 | 0.0 | 0.0 | 0.00 | 0.00 | 0.00 | 77 | 1018.8 |
| 20260830134541 | 48 | 336 | 0.0 | 1.0 | 0.00 | 0.00 | 0.00 | 79 | 1018.8 |
| 20260830134040 | 48 | 336 | 0.0 | 1.0 | 0.00 | 0.00 | 0.00 | 78 | 1018.8 |
| 20260830133539 | 48 | 336 | 0.0 | 1.0 | 0.00 | 0.00 | 0.00 | 78 | 1018.7 |
| 20260830133045 | 48 | 336 | 0.0 | 1.0 | 0.00 | 0.00 | 0.00 | 77 | 1018.7 |
| 20260830132537 | 48 | 335 | 0.0 | 1.0 | 0.00 | 0.00 | 0.00 | 76 | 1018.7 |
| 20260830132036 | 48 | 335 | 0.0 | 1.0 | 0.00 | 0.00 | 0.00 | 74 | 1018.5 |
| 20260830131535 | 48 | 335 | 0.0 | 1.0 | 0.00 | 0.00 | 0.00 | 73 | 1018.4 |
| 20260830131034 | 48 | 335 | 0.0 | 1.0 | 0.00 | 0.00 | 0.00 | 72 | 1018.4 |
| 20260830130534 | 48 | 335 | 0.0 | 1.0 | 0.00 | 0.00 | 0.00 | 71 | 1018.4 |
| 20260830130036 | 48 | 336 | 0.0 | 1.0 | 0.00 | 0.00 | 0.00 | 71 | 1018.3 |
| 20260830125532 | 48 | 333 | 0.0 | 1.0 | 0.00 | 0.00 | 0.00 | 74 | 1018.2 |